This demonstration page uses our WeatherBlox Daily Observations layout. Learn more.

Left ArrowRight Arrow

44.89941, -97.11507

Hourly Observations for March 4, 2017

Temp ( °F °C ) Dew Point ( °F °C ) Humidity (%) Winds ( mph kmh ) Pressure ( in mb ) Visibility ( mi km ) Precip ( " mm )
12:53 am 00:53 Clear 25 -3.9 20 -6.7 81 81 SE 9 15 30.19 1022 10 16 0.00 0.00
1:53 am 01:53 Clear 25 -3.9 20 -6.7 81 81 SE 9 15 30.18 1022 10 16 0.00 0.00
2:53 am 02:53 Clear 26 -3.3 20 -6.7 78 78 SSE 10 17 30.17 1022 10 16 0.00 0.00
3:53 am 03:53 Clear 26 -3.3 20 -6.7 78 78 SSE 13 20 30.14 1021 10 16 0.00 0.00
4:53 am 04:53 Clear 25 -3.9 20 -6.7 81 81 SE 12 19 30.13 1020 10 16 0.00 0.00
5:53 am 05:53 Clear 24 -4.4 19 -7.2 81 81 SSE 13 20 30.14 1021 10 16 0.00 0.00
6:53 am 06:53 Clear 24 -4.4 19 -7.2 81 81 SSE 14 22 30.14 1021 10 16 0.00 0.00
7:53 am 07:53 Sunny 25 -3.9 20 -6.7 81 81 SSE 16 26 30.13 1020 10 16 0.00 0.00
8:53 am 08:53 Sunny 28 -2.2 22 -5.6 78 78 SSE 14 22 30.12 1020 10 16 0.00 0.00
9:53 am 09:53 Sunny 34 1.1 24 -4.4 67 67 SSE 15 24 30.08 1019 10 16 0.00 0.00
10:53 am 10:53 Sunny 40 4.4 26 -3.3 58 58 SSE 16 26 30.07 1018 10 16 0.00 0.00
11:53 am 11:53 Sunny 46 7.8 27 -2.8 47 47 SSE 16 26 30.03 1017 10 16 0.00 0.00
12:53 pm 12:53 Sunny 49 9.4 27 -2.8 43 43 SE 17 28 29.98 1015 10 16 0.00 0.00
1:53 pm 13:53 Sunny 52 11.1 28 -2.2 40 40 SSE 17 28 29.93 1014 10 16 0.00 0.00
2:53 pm 14:53 Sunny 50 10 27 -2.8 41 41 SSE 20 31 29.90 1012 10 16 0.00 0.00
3:53 pm 15:53 Sunny 50 10 29 -1.7 44 44 SSE 25 41 29.86 1011 10 16 0.00 0.00
4:53 pm 16:53 Sunny 48 8.9 30 -1.1 50 50 SSE 22 35 29.85 1011 10 16 0.00 0.00
5:53 pm 17:53 Sunny 43 6.1 32 0 65 65 SSE 14 22 29.87 1011 10 16 0.00 0.00
6:53 pm 18:53 Clear 39 3.9 32 0 76 76 SSE 15 24 29.85 1011 10 16 0.00 0.00
7:53 pm 19:53 Clear 38 3.3 32 0 79 79 SSE 20 31 29.83 1010 10 16 0.00 0.00
8:53 pm 20:53 Clear 38 3.3 32 0 79 79 SSE 16 26 29.81 1010 10 16 0.00 0.00
9:53 pm 21:53 Clear 38 3.3 32 0 79 79 SSE 13 20 29.79 1009 10 16 0.00 0.00
10:53 pm 22:53 Clear 38 3.3 32 0 79 79 SSE 12 19 29.76 1008 10 16 0.00 0.00
11:53 pm 23:53 Clear 37 2.8 31 -0.6 79 79 S 10 17 29.74 1007 10 16 0.00 0.00

Powered by AerisWeather